This demonstration page uses our WeatherBlox Daily Observations layout. Learn more.

Left ArrowRight Arrow

Hourly Observations for October 2, 2021

Temp ( °F °C ) Dew Point ( °F °C ) Humidity (%) Winds ( mph kmh ) Pressure ( in mb ) Visibility ( mi km ) Precip ( " mm )
12:15 am 00:15 Clear 53 11.8 52 11.2 96 96 N N/A 30.10 1019 10 16 N/A
12:35 am 00:35 Clear 55 12.6 54 12.1 97 97 N N/A 30.10 1019 10 16 N/A
12:55 am 00:55 Clear 55 12.6 54 12 96 96 N N/A 30.10 1019 10 16 N/A
1:15 am 01:15 Clear 53 11.9 52 11.3 96 96 N N/A 30.11 1020 7 11 N/A
1:35 am 01:35 Clear with Mist and Fog 54 12 53 11.6 97 97 N N/A 30.10 1019 5 8 N/A
1:55 am 01:55 Clear 53 11.9 53 11.5 97 97 N N/A 30.09 1019 7 11 N/A
2:15 am 02:15 Clear with Mist and Fog 54 12.2 53 11.9 98 98 N N/A 30.09 1019 3 5 N/A
2:35 am 02:35 Clear with Mist and Fog 53 11.8 53 11.5 98 98 N N/A 30.10 1019 5 8 N/A
2:55 am 02:55 Clear with Mist and Fog 53 11.8 53 11.5 98 98 N N/A 30.10 1019 5 8 N/A
3:15 am 03:15 Clear with Mist and Fog 54 12 53 11.7 98 98 WNW 5 7 30.09 1019 5 8 N/A
3:35 am 03:35 Clear with Mist and Fog 54 12.1 53 11.8 98 98 NW 5 7 30.07 1018 5 8 N/A
3:55 am 03:55 Clear 54 12.1 53 11.8 98 98 N N/A 30.07 1018 7 11 N/A
4:15 am 04:15 Clear 55 12.5 54 12.1 97 97 N N/A 30.07 1018 7 11 N/A
4:35 am 04:35 Clear 55 12.7 55 12.5 99 99 NW 3 6 30.07 1018 7 11 N/A
4:55 am 04:55 Clear 56 13.3 55 13 98 98 NNW 5 7 30.06 1018 7 11 N/A
5:15 am 05:15 Clear 56 13.2 55 13 99 99 N N/A 30.06 1018 7 11 N/A
5:35 am 05:35 Clear 56 13.2 55 13 99 99 N N/A 30.07 1018 7 11 N/A
5:55 am 05:55 Clear 55 13 55 12.7 98 98 WNW 6 9 30.09 1019 7 11 N/A
6:15 am 06:15 Clear 55 12.9 55 12.5 97 97 WNW 5 7 30.08 1019 7 11 N/A
6:35 am 06:35 Clear 55 12.9 55 12.5 97 97 W 3 6 30.09 1019 7 11 N/A
6:55 am 06:55 Clear 55 12.6 54 12.2 97 97 WNW 3 6 30.09 1019 7 11 N/A
7:15 am 07:15 Clear 55 12.7 54 12.3 97 97 WNW 5 7 30.09 1019 10 16 N/A
7:35 am 07:35 Clear 55 12.7 54 12.4 98 98 WNW 3 6 30.10 1019 10 16 N/A
7:55 am 07:55 Sunny 54 12.3 53 11.9 97 97 N N/A 30.10 1019 7 11 N/A
8:15 am 08:15 Sunny with Mist and Fog 54 12.4 54 12 97 97 N N/A 30.10 1019 5 8 N/A
8:35 am 08:35 Sunny 55 13 55 12.6 97 97 N N/A 30.10 1019 7 11 N/A
8:55 am 08:55 Sunny 57 14 56 13.6 97 97 W 6 9 30.09 1019 10 16 N/A
9:15 am 09:15 Sunny 59 14.8 57 14 95 95 WNW 6 9 30.08 1019 10 16 N/A
9:35 am 09:35 Sunny 60 15.7 57 14.1 90 90 NW 6 9 30.07 1018 10 16 N/A
9:55 am 09:55 Sunny 62 16.7 58 14.2 85 85 NW 6 9 30.06 1018 10 16 N/A
10:15 am 10:15 Sunny 62 16.8 57 13.7 82 82 NW 7 11 30.07 1018 10 16 N/A
10:35 am 10:35 Sunny 63 17.3 57 13.9 81 81 NNW 10 17 30.06 1018 10 16 N/A
10:55 am 10:55 Sunny 64 17.7 56 13.5 77 77 NNW 9 15 30.06 1018 10 16 N/A
11:15 am 11:15 Sunny 64 17.7 55 13 74 74 NNW 12 19 30.06 1018 10 16 N/A
11:35 am 11:35 Partly Cloudy 64 17.8 56 13.3 75 75 N 9 15 30.06 1018 10 16 N/A
11:55 am 11:55 Mostly Cloudy 64 18 56 13.2 74 74 N 10 17 30.05 1018 10 16 N/A
12:15 pm 12:15 Cloudy 65 18.5 56 13.5 73 73 N 9 15 30.05 1018 10 16 N/A
12:35 pm 12:35 Cloudy 65 18.5 56 13.6 73 73 NNE 8 13 30.05 1018 10 16 N/A
12:55 pm 12:55 Cloudy 65 18.2 57 13.7 75 75 N 10 17 30.05 1018 10 16 N/A
1:15 pm 13:15 Cloudy 66 18.7 57 13.8 73 73 N 8 13 30.04 1017 10 16 N/A
1:35 pm 13:35 Cloudy 66 19 57 13.7 72 72 N 10 17 30.03 1017 10 16 N/A
1:55 pm 13:55 Cloudy 66 18.7 57 13.7 73 73 N 9 15 30.03 1017 10 16 N/A
2:15 pm 14:15 Partly Cloudy 66 19.1 57 13.9 72 72 N 7 11 30.01 1016 10 16 N/A
2:35 pm 14:35 Partly Cloudy 66 18.9 57 13.8 72 72 NNW 6 9 30.02 1016 10 16 N/A
2:55 pm 14:55 Mostly Cloudy 66 18.8 56 13.6 72 72 N 7 11 30.02 1016 10 16 N/A
3:15 pm 15:15 Mostly Cloudy 65 18.5 56 13.5 73 73 N 6 9 30.01 1016 10 16 N/A
3:35 pm 15:35 Mostly Cloudy 66 19.1 57 13.7 71 71 NNW 7 11 30.00 1016 10 16 N/A
3:55 pm 15:55 Partly Cloudy 67 19.2 56 13.6 70 70 N 8 13 30.00 1016 10 16 N/A
4:15 pm 16:15 Partly Cloudy 68 20 56 13.2 65 65 NW 7 11 29.99 1015 10 16 N/A
4:35 pm 16:35 Partly Cloudy 68 20.1 51 10.6 55 55 N 10 17 30.00 1016 10 16 N/A
4:55 pm 16:55 Sunny 68 20.1 51 10.3 53 53 N 10 17 29.99 1015 10 16 N/A
5:15 pm 17:15 Sunny 68 20 50 10.1 53 53 N 9 15 29.99 1015 10 16 N/A
5:35 pm 17:35 Sunny 70 21.1 51 10.4 51 51 NNW 8 13 29.97 1015 10 16 N/A
5:55 pm 17:55 Sunny 71 21.5 46 8 42 42 N 7 11 29.96 1015 10 16 N/A
6:15 pm 18:15 Sunny 71 21.4 44 6.7 39 39 N 12 19 29.97 1015 10 16 N/A
6:35 pm 18:35 Sunny 69 20.7 45 7 41 41 N 7 11 29.97 1015 10 16 N/A
6:55 pm 18:55 Sunny 67 19.4 46 7.9 48 48 N 5 7 29.98 1015 10 16 N/A
7:15 pm 19:15 Sunny 64 17.6 47 8.1 54 54 NNE 3 6 30.00 1016 10 16 N/A
7:35 pm 19:35 Hazy 63 17.1 47 8.1 56 56 N N/A 30.01 1016 4 6 N/A
7:55 pm 19:55 Clear 62 16.8 48 9 60 60 N N/A 30.01 1016 10 16 N/A
8:15 pm 20:15 Clear 59 15.2 51 10.3 73 73 N N/A 30.03 1017 10 16 N/A
8:35 pm 20:35 Clear 58 14.7 50 10 74 74 N N/A 30.03 1017 10 16 N/A
8:55 pm 20:55 Clear 57 13.8 51 10.6 81 81 N N/A 30.04 1017 10 16 N/A
9:15 pm 21:15 Clear 55 12.8 50 10.1 84 84 N N/A 30.06 1018 10 16 N/A
9:35 pm 21:35 Clear 56 13.2 50 10 81 81 N N/A 30.05 1018 10 16 N/A
9:55 pm 21:55 Clear 54 12 50 9.8 87 87 N N/A 30.07 1018 10 16 N/A
10:15 pm 22:15 Clear 53 11.9 50 10 88 88 W 3 6 30.08 1018 10 16 N/A
10:35 pm 22:35 Clear 53 11.8 49 9.6 87 87 W 3 6 30.08 1019 10 16 N/A
10:55 pm 22:55 Clear 52 10.9 49 9.3 90 90 N N/A 30.08 1019 10 16 N/A
11:15 pm 23:15 Clear 52 11.1 48 9.1 88 88 N N/A 30.08 1019 10 16 N/A
11:35 pm 23:35 Clear 53 11.7 48 8.9 83 83 W 3 6 30.08 1019 10 16 N/A
11:55 pm 23:55 Clear 53 11.4 48 9 85 85 N N/A 30.09 1019 10 16 N/A

Powered by AerisWeather